Home > Weather > Fredrikstad > Past weeks

Flag for Norway Past Weather in Fredrikstad, Norway — Yesterday and Last 2 Weeks

Now
63 °F

Sunny.


Feels Like: 63 °F
Forecast: 59 / 67 °F
Wind: 10 mph from South

Location: Rygge

Current Time: Jul 28, 2016 at 10:16:40 PM

Latest Report: Jul 28, 2016 at 9:20 PM


Visibility: 10 mi

Pressure: 29.83 "Hg

Humidity: 83%

Dew Point: 57 °F

Location of FredrikstadLocation

Past Weather in Fredrikstad — Graph

°F

Fredrikstad Temperature Yesterday

Maximum temperature yesterday: 66 °F (at 11:50 AM)
Minimum temperature yesterday: 57 °F (at 4:20 AM)
Average temperature yesterday: 62 °F

High & Low Weather Summary for the Past Weeks

 TemperatureHumidityPressure
High79 °F (Jul 21, 2:20 PM)100% (Jul 14, 1:50 AM)30.15 "Hg (Jul 14, 1:50 AM)
Low52 °F (Jul 17, 3:50 AM)46% (Jul 16, 7:20 PM)29.68 "Hg (Jul 13, 8:50 PM)
Average65 °F77%29.96 "Hg
* Reported Jul 13 8:50 PM — Jul 28 8:50 PM, Fredrikstad, Weather by CustomWeather, © 2016

Note: Actual official high and low records may vary slightly from our data, if they occured in-between our weather recording intervals... More about our weather records

Advertising

Fredrikstad Weather History for the Previous 24 Hours

Scroll right to see more
 ConditionsComfort  
Time TempWeatherWind HumidityBarometerVisibility
8:50 PM
Thu, Jul 28
63 °FSunny.10 mph83%29.83 "Hg10 mi
8:20 PM64 °FPassing clouds.9 mph83%29.83 "HgN/A
7:50 PM64 °FSunny.13 mph78%29.83 "Hg10 mi
7:20 PM64 °FPassing clouds.12 mph78%29.83 "HgN/A
6:50 PM66 °FPassing clouds.16 mph68%29.83 "HgN/A
6:20 PM66 °FPassing clouds.16 mph73%29.83 "HgN/A
5:50 PM66 °FPassing clouds.16 mph73%29.83 "HgN/A
5:20 PM68 °FPassing clouds.16 mph69%29.83 "HgN/A
4:50 PM68 °FPassing clouds.18 mph69%29.83 "HgN/A
4:20 PM68 °FPassing clouds.15 mph69%29.83 "HgN/A
3:50 PM66 °FSunny.17 mph73%29.83 "Hg10 mi
3:20 PM68 °FSunny.16 mph64%29.83 "Hg10 mi
2:50 PM68 °FSunny.18 mph60%29.83 "Hg10 mi
2:20 PM68 °FSunny.18 mph60%29.83 "Hg10 mi
1:50 PM68 °FSunny.18 mph64%29.83 "Hg10 mi
1:20 PM68 °FSunny.17 mph64%29.83 "Hg10 mi
12:50 PM68 °FPassing clouds.10 mph56%29.83 "HgN/A
12:20 PM68 °FPassing clouds.9 mph56%29.80 "HgN/A
11:50 AM68 °FPassing clouds.9 mph60%29.80 "HgN/A
11:20 AM66 °FPassing clouds.8 mph68%29.80 "HgN/A
10:50 AM64 °FPassing clouds.8 mph73%29.80 "HgN/A
10:20 AM66 °FPassing clouds.8 mph73%29.77 "HgN/A
9:50 AM64 °FScattered clouds.7 mph78%29.77 "HgN/A
9:20 AM64 °FScattered clouds.10 mph78%29.77 "HgN/A
8:50 AM63 °FScattered clouds.8 mph83%29.77 "HgN/A
8:20 AM61 °FScattered clouds.7 mph88%29.74 "HgN/A
7:50 AM61 °FBroken clouds.7 mph88%29.74 "HgN/A
7:20 AM61 °FPartly sunny.7 mph88%29.74 "HgN/A
6:50 AM61 °FPartly sunny.8 mph88%29.74 "HgN/A
6:20 AM61 °FScattered clouds.9 mph88%29.74 "HgN/A
2:20 AM61 °FPassing clouds.12 mph94%29.77 "HgN/A
1:50 AM61 °FPartly cloudy.12 mph94%29.77 "HgN/A
1:20 AM61 °FPartly cloudy.10 mph94%29.80 "HgN/A
12:50 AM61 °FPassing clouds.8 mph94%29.80 "HgN/A
12:20 AM61 °FPassing clouds.8 mph94%29.80 "HgN/A
11:50 PM
Wed, Jul 27
61 °FPassing clouds.9 mph94%29.80 "HgN/A
11:20 PM61 °FPartly cloudy.10 mph94%29.83 "HgN/A
10:50 PM61 °FMore clouds than sun.8 mph94%29.83 "HgN/A
10:20 PM63 °FDrizzle. Partly sunny.15 mph88%29.83 "HgN/A
Weather by CustomWeather, © 2016

See weather overviewHow to use our weather pages